EW5171 Weather Reports


Display with metric or nautical units.
time (UTC)temp
F
wind
direction
speed
MPH
gust
MPH
rain 1hr
in
rain 24hr
in
rain mn
in
humidity
%
barometer
mb
20260507070008 51 259 2.0 5.0 0.00 0.00 0.00 77 1016.2
20260507065502 51 255 2.0 4.0 0.00 0.00 0.00 78 1016.2
20260507065003 50 273 1.0 4.0 0.00 0.00 0.00 80 1016.0
20260507064600 50 251 1.0 4.0 0.00 0.00 0.00 80 1016.0
20260507064058 49 204 0.0 4.0 0.00 0.00 0.00 82 1016.1
20260507063557 49 46 1.0 5.0 0.00 0.00 0.00 83 1016.0
20260507063057 48 251 0.0 3.0 0.00 0.00 0.00 84 1016.0
20260507062554 48 280 1.0 4.0 0.00 0.00 0.00 85 1016.0
20260507062052 47 136 2.0 4.0 0.00 0.00 0.00 87 1016.0
20260507061551 47 218 0.0 7.0 0.00 0.00 0.00 88 1015.8
20260507061050 46 198 2.0 7.0 0.00 0.00 0.00 89 1015.8
20260507060548 45 202 1.0 4.0 0.00 0.00 0.00 91 1015.7
20260507060046 45 233 1.0 4.0 0.00 0.00 0.00 92 1015.6
20260507055545 44 224 2.0 4.0 0.00 0.00 0.00 93 1015.6
20260507055047 43 225 0.0 3.0 0.00 0.00 0.00 94 1015.5
20260507054600 42 225 0.0 2.0 0.00 0.00 0.00 95 1015.6
20260507054040 42 225 0.0 4.0 0.00 0.00 0.00 95 1015.5
20260507053539 41 225 2.0 4.0 0.00 0.00 0.00 95 1015.5
20260507053037 39 265 0.0 0.0 0.00 0.00 0.00 95 1015.5
20260507052536 39 265 0.0 1.0 0.00 0.00 0.00 95 1015.4
20260507052035 38 265 0.0 1.0 0.00 0.00 0.00 95 1015.4
20260507051535 37 265 0.0 1.0 0.00 0.00 0.00 95 1015.4
20260507051035 36 265 0.0 1.0 0.00 0.00 0.00 95 1015.4
20260507050532 36 265 0.0 0.0 0.00 0.00 0.00 94 1015.4
20260507050033 35 184 0.0 0.0 0.00 0.00 0.00 94 1015.4
20260507045532 35 184 0.0 0.0 0.00 0.00 0.00 94 1015.3
20260507045030 35 184 0.0 0.0 0.00 0.00 0.00 94 1015.3
20260507044531 34 184 0.0 0.0 0.00 0.00 0.00 93 1015.2
20260507044030 34 184 0.0 0.0 0.00 0.00 0.00 93 1015.2
20260507043529 34 184 0.0 0.0 0.00 0.00 0.00 93 1015.1
20260507043028 34 184 0.0 0.0 0.00 0.00 0.00 93 1015.1
20260507042527 34 184 0.0 0.0 0.00 0.00 0.00 93 1015.0
20260507042026 33 184 0.0 0.0 0.00 0.00 0.00 93 1015.0
20260507041525 33 184 0.0 0.0 0.00 0.00 0.00 93 1014.9
20260507041025 33 184 0.0 0.0 0.00 0.00 0.00 93 1014.9
20260507040525 33 184 0.0 0.0 0.00 0.00 0.00 93 1014.9
20260507040023 33 184 0.0 0.0 0.00 0.00 0.00 92 1014.9
20260507035523 33 184 0.0 0.0 0.00 0.00 0.00 92 1014.8
20260507035023 33 184 0.0 0.0 0.00 0.00 0.00 92 1014.9
20260507034522 33 184 0.0 0.0 0.00 0.00 0.00 92 1014.9
20260507034023 33 184 0.0 0.0 0.00 0.00 0.00 92 1014.8
20260507033521 33 184 0.0 0.0 0.00 0.00 0.00 92 1014.8
20260507033023 32 184 0.0 0.0 0.00 0.00 0.00 92 1014.8
20260507032519 33 184 0.0 0.0 0.00 0.00 0.00 92 1014.7
20260507032023 33 184 0.0 0.0 0.00 0.00 0.00 92 1014.8
20260507031518 33 184 0.0 0.0 0.00 0.00 0.00 91 1014.7
20260507031020 33 184 0.0 0.0 0.00 0.00 0.00 91 1014.7
20260507030518 33 184 0.0 0.0 0.00 0.00 0.00 91 1014.7
20260507030017 33 184 0.0 0.0 0.00 0.00 0.00 91 1014.7
20260507025516 33 184 0.0 0.0 0.00 0.00 0.00 91 1014.6
20260507025015 33 184 0.0 0.0 0.00 0.00 0.00 91 1014.6
20260507024515 33 184 0.0 0.0 0.00 0.00 0.00 91 1014.6
20260507024016 33 184 0.0 0.0 0.00 0.00 0.00 91 1014.5
20260507023514 33 184 0.0 0.0 0.00 0.00 0.00 91 1014.5
20260507023013 33 184 0.0 0.0 0.00 0.00 0.00 91 1014.4
20260507022512 33 184 0.0 0.0 0.00 0.00 0.00 91 1014.4
20260507022012 33 184 0.0 0.0 0.00 0.00 0.00 90 1014.4
20260507021510 34 184 0.0 0.0 0.00 0.00 0.00 91 1014.3
20260507021010 34 184 0.0 0.0 0.00 0.00 0.00 90 1014.3
20260507020509 34 184 0.0 0.0 0.00 0.00 0.00 90 1014.3
20260507020011 34 184 0.0 0.0 0.00 0.00 0.00 90 1014.3
20260507015508 34 184 0.0 0.0 0.00 0.00 0.00 90 1014.3
20260507015008 34 184 0.0 0.0 0.00 0.00 0.00 90 1014.3
20260507014508 34 184 0.0 0.0 0.00 0.00 0.00 90 1014.3
20260507014008 34 184 0.0 0.0 0.00 0.00 0.00 90 1014.2
20260507013507 34 184 0.0 0.0 0.00 0.00 0.00 89 1014.2
20260507013006 34 184 0.0 0.0 0.00 0.00 0.00 90 1014.1
20260507012505 34 184 0.0 0.0 0.00 0.00 0.00 90 1014.2
20260507012008 34 184 0.0 0.0 0.00 0.00 0.00 90 1014.2
20260507011505 34 184 0.0 0.0 0.00 0.00 0.00 89 1014.1
20260507011007 34 184 0.0 0.0 0.00 0.00 0.00 89 1014.2
20260507010504 34 184 0.0 0.0 0.00 0.00 0.00 89 1014.2
20260507010005 35 184 0.0 0.0 0.00 0.00 0.00 89 1014.1
20260507005502 35 184 0.0 0.0 0.00 0.00 0.00 89 1014.2
20260507005003 35 184 0.0 0.0 0.00 0.00 0.00 88 1014.1
20260507004600 36 184 0.0 0.0 0.00 0.00 0.00 89 1014.0
20260507004059 36 184 0.0 0.0 0.00 0.00 0.00 89 1014.1
20260507003559 36 184 0.0 0.0 0.00 0.00 0.00 88 1014.0
20260507003058 36 184 0.0 0.0 0.00 0.00 0.00 89 1014.0
20260507002558 36 184 0.0 0.0 0.00 0.00 0.00 89 1014.0
20260507002057 36 184 0.0 0.0 0.00 0.00 0.00 89 1014.1
20260507001604 36 184 0.0 0.0 0.00 0.00 0.00 88 1014.0
20260507001056 36 184 0.0 0.0 0.00 0.00 0.00 88 1014.0
20260507000556 36 184 0.0 0.0 0.00 0.00 0.00 87 1014.0
20260507000056 36 184 0.0 0.0 0.00 0.00 0.00 87 1013.9
20260506235558 36 184 0.0 0.0 0.00 0.00 0.00 87 1013.9
20260506235055 36 184 0.0 0.0 0.00 0.00 0.00 87 1013.9
20260506234556 36 184 0.0 0.0 0.00 0.00 0.00 87 1013.9
20260506234054 36 184 0.0 0.0 0.00 0.00 0.00 86 1013.9
20260506233554 36 184 0.0 0.0 0.00 0.00 0.00 86 1013.9
20260506233109 37 184 0.0 0.0 0.00 0.00 0.00 85 1014.0
20260506232551 37 184 0.0 0.0 0.00 0.00 0.00 85 1014.0
20260506232050 37 184 0.0 0.0 0.00 0.00 0.00 86 1014.1
20260506231550 37 184 0.0 0.0 0.00 0.00 0.00 86 1014.1
20260506231051 37 184 0.0 0.0 0.00 0.00 0.00 85 1014.0
20260506230548 37 184 0.0 0.0 0.00 0.00 0.00 84 1013.9
20260506230048 38 184 0.0 0.0 0.00 0.00 0.00 84 1013.9
20260506225546 38 184 0.0 0.0 0.00 0.00 0.00 83 1013.8
20260506225046 38 184 0.0 0.0 0.00 0.00 0.00 83 1013.7
20260506224546 38 184 0.0 0.0 0.00 0.00 0.00 83 1013.7
20260506224044 38 184 0.0 0.0 0.00 0.00 0.00 83 1013.7
20260506223546 38 184 0.0 0.0 0.00 0.00 0.00 82 1013.7
20260506223046 38 184 0.0 0.0 0.00 0.00 0.00 82 1013.7
20260506222543 39 184 0.0 0.0 0.00 0.00 0.00 82 1013.6
20260506222042 39 184 0.0 0.0 0.00 0.00 0.00 81 1013.6
20260506221540 39 184 0.0 0.0 0.00 0.00 0.00 80 1013.7
20260506221039 39 184 0.0 0.0 0.00 0.00 0.00 80 1013.6
20260506220538 40 184 0.0 0.0 0.00 0.00 0.00 80 1013.7
20260506220037 40 184 0.0 0.0 0.00 0.00 0.00 80 1013.7
20260506215539 41 184 0.0 0.0 0.00 0.00 0.00 80 1013.6
20260506215036 41 184 0.0 0.0 0.00 0.00 0.00 79 1013.6
20260506214536 41 184 0.0 0.0 0.00 0.00 0.00 79 1013.5
20260506214035 41 184 0.0 0.0 0.00 0.00 0.00 79 1013.5
20260506213535 41 184 0.0 0.0 0.00 0.00 0.00 78 1013.5
20260506213035 42 184 0.0 0.0 0.00 0.00 0.00 78 1013.4
20260506212534 42 184 0.0 0.0 0.00 0.00 0.00 78 1013.4
20260506212038 42 184 0.0 0.0 0.00 0.00 0.00 77 1013.4
20260506211535 43 57 0.0 0.0 0.00 0.00 0.00 78 1013.4
20260506211033 43 57 0.0 0.0 0.00 0.00 0.00 77 1013.4
20260506210533 43 57 0.0 0.0 0.00 0.00 0.00 77 1013.4
20260506210033 44 57 0.0 0.0 0.00 0.00 0.00 76 1013.3
20260506205535 44 57 0.0 0.0 0.00 0.00 0.00 76 1013.3
20260506205034 44 57 0.0 0.0 0.00 0.00 0.00 76 1013.3
20260506204531 45 57 0.0 0.0 0.00 0.00 0.00 76 1013.2
20260506204033 45 57 0.0 0.0 0.00 0.00 0.00 75 1013.2
20260506203530 45 57 0.0 0.0 0.00 0.00 0.00 75 1013.2
20260506203030 45 57 0.0 0.0 0.00 0.00 0.00 75 1013.2
20260506202529 45 57 0.0 0.0 0.00 0.00 0.00 74 1013.1
20260506202029 46 57 0.0 0.0 0.00 0.00 0.00 74 1013.1
20260506201530 46 57 0.0 0.0 0.00 0.00 0.00 73 1013.1
20260506201029 46 57 0.0 1.0 0.00 0.00 0.00 72 1013.0
20260506200531 47 57 0.0 2.0 0.00 0.00 0.00 72 1013.0
20260506200028 47 57 0.0 2.0 0.00 0.00 0.00 71 1013.0
20260506195527 48 57 0.0 1.0 0.00 0.00 0.00 70 1013.0
20260506195027 48 57 0.0 1.0 0.00 0.00 0.00 70 1012.9
20260506194527 48 57 0.0 2.0 0.00 0.00 0.00 69 1013.0
20260506194028 49 57 0.0 2.0 0.00 0.00 0.00 69 1012.9
20260506193526 49 57 0.0 2.0 0.00 0.00 0.00 68 1012.9
20260506193028 49 57 0.0 2.0 0.00 0.00 0.00 67 1012.8
20260506192528 49 57 0.0 2.0 0.00 0.00 0.00 66 1012.8
20260506192024 50 57 0.0 2.0 0.00 0.00 0.00 66 1012.7
20260506191525 50 26 0.0 1.0 0.00 0.00 0.00 66 1012.7
20260506191024 50 26 0.0 1.0 0.00 0.00 0.00 65 1012.6
20260506190523 51 26 0.0 0.0 0.00 0.00 0.00 64 1012.5
20260506190023 51 26 0.0 0.0 0.00 0.00 0.00 63 1012.5
20260506185524 51 26 0.0 1.0 0.00 0.00 0.00 62 1012.5
20260506185023 51 26 0.0 1.0 0.00 0.00 0.00 61 1012.4
20260506184523 52 26 0.0 1.0 0.00 0.00 0.00 59 1012.3
20260506184023 52 26 0.0 0.0 0.00 0.00 0.00 58 1012.3
20260506183523 52 26 0.0 0.0 0.00 0.00 0.00 58 1012.3
20260506183023 52 26 0.0 0.0 0.00 0.00 0.00 58 1012.2
20260506182522 53 26 0.0 1.0 0.00 0.00 0.00 58 1012.2
20260506182023 53 26 0.0 1.0 0.00 0.00 0.00 56 1012.1
20260506181521 54 26 0.0 0.0 0.00 0.00 0.00 55 1012.0
20260506181021 54 26 0.0 1.0 0.00 0.00 0.00 53 1012.0
20260506180521 54 26 0.0 1.0 0.00 0.00 0.00 52 1011.9
20260506180021 54 26 0.0 2.0 0.00 0.00 0.00 52 1011.9
20260506175520 54 26 0.0 4.0 0.00 0.00 0.00 50 1011.9
20260506175023 55 16 1.0 4.0 0.00 0.00 0.00 48 1011.8
20260506174521 55 65 0.0 2.0 0.00 0.00 0.00 46 1011.7
20260506174024 55 211 0.0 3.0 0.00 0.00 0.00 47 1011.7
20260506173520 56 54 0.0 3.0 0.00 0.00 0.00 45 1011.7
20260506173020 56 54 1.0 3.0 0.00 0.00 0.00 46 1011.7
20260506172520 56 54 0.0 2.0 0.00 0.00 0.00 44 1011.7
20260506172019 56 44 0.0 2.0 0.00 0.00 0.00 43 1011.6
20260506171521 56 55 0.0 3.0 0.00 0.00 0.00 41 1011.6
20260506171019 56 55 1.0 3.0 0.00 0.00 0.00 42 1011.6
20260506170519 56 18 0.0 2.0 0.00 0.00 0.00 41 1011.6
20260506170021 56 57 0.0 3.0 0.00 0.00 0.00 41 1011.6
20260506165519 56 51 1.0 4.0 0.00 0.00 0.00 39 1011.5
20260506165018 57 51 2.0 4.0 0.00 0.00 0.00 38 1011.5
20260506164518 58 58 1.0 4.0 0.00 0.00 0.00 38 1011.5
20260506164017 58 33 0.0 4.0 0.00 0.00 0.00 39 1011.5
20260506163517 58 128 1.0 4.0 0.00 0.00 0.00 39 1011.5
20260506163031 58 355 0.0 3.0 0.00 0.00 0.00 38 1011.5
20260506162521 58 55 1.0 4.0 0.00 0.00 0.00 39 1011.5
20260506162017 59 113 1.0 5.0 0.00 0.00 0.00 39 1011.5
20260506161516 59 69 2.0 5.0 0.00 0.00 0.00 38 1011.5
20260506161016 59 20 0.0 2.0 0.00 0.00 0.00 38 1011.4
20260506160516 59 42 0.0 5.0 0.00 0.00 0.00 37 1011.4
20260506160117 58 42 0.0 5.0 0.00 0.00 0.00 40 1011.4
20260506155515 58 265 1.0 5.0 0.00 0.00 0.00 39 1011.4
20260506155016 59 84 2.0 5.0 0.00 0.00 0.00 38 1011.4
20260506154515 59 38 2.0 5.0 0.00 0.00 0.00 38 1011.4
20260506154115 59 350 1.0 6.0 0.00 0.00 0.00 39 1011.4
20260506153514 59 333 1.0 4.0 0.00 0.00 0.00 40 1011.4
20260506153015 58 74 2.0 7.0 0.00 0.00 0.00 40 1011.4
20260506152514 59 71 3.0 7.0 0.00 0.00 0.00 37 1011.4
20260506152019 59 40 2.0 6.0 0.00 0.00 0.00 39 1011.5
20260506151512 58 39 2.0 6.0 0.00 0.00 0.00 38 1011.4
20260506151013 58 33 1.0 5.0 0.00 0.00 0.00 41 1011.5
20260506150514 57 44 2.0 6.0 0.00 0.00 0.00 40 1011.5
20260506150012 58 34 4.0 7.0 0.00 0.00 0.00 39 1011.5
20260506145515 58 348 2.0 9.0 0.00 0.00 0.00 39 1011.6
20260506145013 58 67 2.0 7.0 0.00 0.00 0.00 40 1011.5
20260506144512 58 57 2.0 7.0 0.00 0.00 0.00 39 1011.6
20260506144012 58 46 2.0 7.0 0.00 0.00 0.00 40 1011.5
20260506143512 59 53 4.0 7.0 0.00 0.00 0.00 38 1011.6
20260506143011 59 81 2.0 7.0 0.00 0.00 0.00 41 1011.6
20260506142510 59 40 2.0 5.0 0.00 0.00 0.00 41 1011.6
20260506142011 58 17 2.0 5.0 0.00 0.00 0.00 41 1011.6
20260506141510 58 348 2.0 9.0 0.00 0.00 0.00 40 1011.8
20260506141010 58 59 3.0 9.0 0.00 0.00 0.00 39 1011.7
20260506140510 58 67 2.0 8.0 0.00 0.00 0.00 42 1011.7
20260506140010 58 119 2.0 8.0 0.00 0.00 0.00 41 1011.6
20260506135510 58 325 3.0 9.0 0.00 0.00 0.00 41 1011.7
20260506135011 58 45 3.0 9.0 0.00 0.00 0.00 43 1011.8
20260506134509 59 72 3.0 6.0 0.00 0.00 0.00 41 1011.8
20260506134011 59 164 2.0 9.0 0.00 0.00 0.00 41 1011.8
20260506133508 59 26 3.0 9.0 0.00 0.00 0.00 40 1011.8
20260506133008 58 71 2.0 9.0 0.00 0.00 0.00 39 1011.7
20260506132508 58 328 2.0 9.0 0.00 0.00 0.00 39 1011.8
20260506132007 58 75 4.0 10.0 0.00 0.00 0.00 37 1011.8
20260506131513 58 34 3.0 10.0 0.00 0.00 0.00 38 1011.8
20260506131007 59 35 4.0 9.0 0.00 0.00 0.00 37 1011.8
20260506130509 59 57 2.0 8.0 0.00 0.00 0.00 39 1011.8
20260506130007 59 17 2.0 8.0 0.00 0.00 0.00 39 1011.8
20260506125505 59 346 1.0 6.0 0.00 0.00 0.00 38 1011.8
20260506125005 59 39 2.0 6.0 0.00 0.00 0.00 39 1011.8
20260506124505 59 17 2.0 6.0 0.00 0.00 0.00 38 1011.8
20260506124005 59 62 2.0 6.0 0.00 0.00 0.00 37 1011.8
20260506123505 60 54 3.0 6.0 0.00 0.00 0.00 37 1011.9
20260506123005 59 355 1.0 9.0 0.00 0.00 0.00 39 1011.9
20260506122505 59 250 2.0 9.0 0.00 0.00 0.00 40 1011.9
20260506122003 59 59 3.0 8.0 0.00 0.00 0.00 39 1011.9
20260506121504 59 346 1.0 6.0 0.00 0.00 0.00 39 1011.9
20260506121003 60 20 1.0 6.0 0.00 0.00 0.00 36 1012.0
20260506120503 60 80 1.0 6.0 0.00 0.00 0.00 35 1012.0
20260506120002 60 355 2.0 6.0 0.00 0.00 0.00 36 1012.0
20260506115504 60 337 1.0 5.0 0.00 0.00 0.00 35 1012.0
20260506115002 59 34 2.0 4.0 0.00 0.00 0.00 37 1012.1
20260506114607 58 13 2.0 9.0 0.00 0.00 0.00 38 1012.0
20260506114101 58 322 3.0 9.0 0.00 0.00 0.00 39 1012.1
20260506113600 58 349 3.0 6.0 0.00 0.00 0.00 35 1012.2
20260506113059 59 28 2.0 7.0 0.00 0.00 0.00 38 1012.1
20260506112559 59 62 3.0 8.0 0.00 0.00 0.00 36 1012.0
20260506112057 59 28 2.0 9.0 0.00 0.00 0.00 38 1012.1
20260506111558 59 19 2.0 9.0 0.00 0.00 0.00 36 1012.1
20260506111057 59 61 2.0 5.0 0.00 0.00 0.00 38 1012.1
20260506110557 59 51 2.0 7.0 0.00 0.00 0.00 41 1012.2
20260506105558 59 129 2.0 4.0 0.00 0.00 0.00 42 1012.2
20260506105055 59 71 2.0 5.0 0.00 0.00 0.00 42 1012.2
20260506104554 59 63 2.0 5.0 0.00 0.00 0.00 42 1012.2
20260506104053 59 90 2.0 5.0 0.00 0.00 0.00 43 1012.2
20260506103552 58 58 2.0 5.0 0.00 0.00 0.00 44 1012.2
20260506103052 58 65 1.0 7.0 0.00 0.00 0.00 44 1012.2
20260506102551 58 50 3.0 8.0 0.00 0.00 0.00 40 1012.2
20260506102051 58 63 1.0 8.0 0.00 0.00 0.00 42 1012.2
20260506101559 58 67 2.0 7.0 0.00 0.00 0.00 40 1012.3
20260506101053 58 154 3.0 7.0 0.00 0.00 0.00 40 1012.3
20260506100551 58 46 2.0 5.0 0.00 0.00 0.00 43 1012.2
20260506100050 58 53 2.0 6.0 0.00 0.00 0.00 43 1012.3
20260506095554 57 163 2.0 8.0 0.00 0.00 0.00 42 1012.3
20260506095048 57 109 3.0 8.0 0.00 0.00 0.00 40 1012.2
20260506094607 58 71 3.0 6.0 0.00 0.00 0.00 42 1012.2
20260506094047 58 40 2.0 5.0 0.00 0.00 0.00 43 1012.3
20260506093548 58 59 2.0 5.0 0.00 0.00 0.00 43 1012.2
20260506093052 58 43 2.0 5.0 0.00 0.00 0.00 43 1012.2
20260506092545 57 133 2.0 5.0 0.00 0.00 0.00 44 1012.2
20260506092044 57 112 1.0 4.0 0.00 0.00 0.00 44 1012.2
20260506091544 57 46 2.0 5.0 0.00 0.00 0.00 42 1012.2
20260506091043 57 64 2.0 6.0 0.00 0.00 0.00 42 1012.3
20260506090543 58 79 1.0 8.0 0.00 0.00 0.00 41 1012.3
20260506090041 57 37 2.0 8.0 0.00 0.00 0.00 40 1012.3
20260506085540 57 74 1.0 4.0 0.00 0.00 0.00 40 1012.2
20260506085038 57 55 1.0 5.0 0.00 0.00 0.00 42 1012.2
20260506084538 56 53 2.0 5.0 0.00 0.00 0.00 41 1012.2
20260506084039 56 149 2.0 5.0 0.00 0.00 0.00 39 1012.2
20260506083537 56 63 2.0 5.0 0.00 0.00 0.00 39 1012.1
20260506083036 56 47 2.0 5.0 0.00 0.00 0.00 38 1012.1
20260506082533 56 52 1.0 4.0 0.00 0.00 0.00 39 1012.1
20260506082033 56 81 1.0 4.0 0.00 0.00 0.00 37 1012.1
20260506081531 56 53 1.0 5.0 0.00 0.00 0.00 37 1012.1
20260506081031 55 32 0.0 4.0 0.00 0.00 0.00 44 1012.1
20260506080531 55 117 1.0 4.0 0.00 0.00 0.00 43 1012.1
20260506073527 56 55 0.0 4.0 0.00 0.00 0.00 42 1012.2
20260506073026 55 82 1.0 4.0 0.00 0.00 0.00 42 1012.1
20260506072524 55 110 1.0 4.0 0.00 0.00 0.00 42 1012.1
20260506072022 55 67 1.0 4.0 0.00 0.00 0.00 43 1012.2
20260506071528 54 49 1.0 4.0 0.00 0.00 0.00 44 1012.1
20260506071020 54 54 1.0 3.0 0.00 0.00 0.00 44 1012.1
20260506070518 54 136 0.0 3.0 0.00 0.00 0.00 44 1012.1